Location: Cheyres
(46.8153°N, 6.7877°E)
Time: 04:31:24
(UTC+00:00)

Cosmos 1500 - Pass Details

Date: 11 May 2021
Orbit: 497 x 518 km, 82.5° (Epoch: 18 June)

Event Time Altitude Azimuth Distance (km) Brightness Sun altitude
Rises 19:47:42 0° 0° (N) 2,614 7.4 -8.2°
Reaches altitude 10° 19:50:03 10° 13° (NNE) 1,720 6.2 -8.5°
Maximum altitude 19:53:20 28° 73° (ENE) 975 4.3 -9.0°
Enters shadow 19:56:03 13° 129° (SE) 1,520 4.9 -9.3°
